Starlink 11263

operational
NORAD ID: 60725 Int'l Des: 2024-152 Owner: SPXS Country: US Constellation: starlink
LEOCIRCULAR

Über Starlink 11263

Beschreibung wird geladen...

Live-Position

3D-Globus wird geladen...

Nächste Überflüge

Höhenverlauf

Altitude vs Time

uPlot chart will show altitude changes over time

Zweizeiliger Elementsatz

1 60725U 24152F 25352.75980017 -.00002434 00000-0 -15248-4 0 9997
2 60725 53.1594 155.2460 0000907 79.7294 280.3827 15.69694418 76125
Epoch: 18. Dez. 2025 • Age: 22 hours

Aktueller Status

Höhe 364.6 km
Geschwindigkeit 7.70 km/s
Subsatellitenpunkt 48.22°N, 119.98°W
Startdatum 28. Aug. 2024
Alter 1.3 years
Typ internet

Technische Details

Klassifizierung Payload
Masse 960.00 kg
Trockenmasse 910.00 kg
Gesamtmasse 960.00 kg
Länge 0.30 m
Durchmesser 4.10 m
Spannweite 29.00 m
Form Box + pan
Hersteller SPXS
Bus-Typ Starlink V2MD
Phasenstatus In Orbit
Besitzer/Staat SPXS/US

Große Konstellationen

Loading constellations...